Year,Month,Day,Hour,Minute,Value (Times are PST for temperature in C)
2018,04,24,00,00,7.50
2018,04,24,00,01,7.50
2018,04,24,00,02,7.50
2018,04,24,00,03,7.50
2018,04,24,00,04,7.50
2018,04,24,00,05,7.50
2018,04,24,00,06,7.50
2018,04,24,00,07,7.50
2018,04,24,00,08,7.50
2018,04,24,00,09,7.50
2018,04,24,00,10,7.50
2018,04,24,00,11,7.50
2018,04,24,00,12,7.50
2018,04,24,00,13,7.50
2018,04,24,00,14,7.50
2018,04,24,00,15,7.50
2018,04,24,00,16,7.60
2018,04,24,00,17,7.60
2018,04,24,00,18,7.60
2018,04,24,00,19,7.60
2018,04,24,00,20,7.60
2018,04,24,00,21,7.60
2018,04,24,00,22,7.60
2018,04,24,00,23,7.60
2018,04,24,00,24,7.60
2018,04,24,00,25,7.60
2018,04,24,00,26,7.70
2018,04,24,00,27,7.70
2018,04,24,00,28,7.70
2018,04,24,00,29,7.70
2018,04,24,00,30,7.80
2018,04,24,00,31,7.70
2018,04,24,00,32,7.70
2018,04,24,00,33,7.70
2018,04,24,00,34,7.60
2018,04,24,00,35,7.60
2018,04,24,00,36,7.50
2018,04,24,00,37,7.40
2018,04,24,00,38,7.40
2018,04,24,00,39,7.30
2018,04,24,00,40,7.30
2018,04,24,00,41,7.30
2018,04,24,00,42,7.30
2018,04,24,00,43,7.30
2018,04,24,00,44,7.30
2018,04,24,00,45,7.20
2018,04,24,00,46,7.20
2018,04,24,00,47,7.20
2018,04,24,00,48,7.20
2018,04,24,00,49,7.10
2018,04,24,00,50,7.10
2018,04,24,00,51,7.10
2018,04,24,00,52,7.00
2018,04,24,00,53,7.00
2018,04,24,00,54,7.00
2018,04,24,00,55,7.00
2018,04,24,00,56,7.10
2018,04,24,00,57,7.10
2018,04,24,00,58,7.20
2018,04,24,00,59,7.20
2018,04,24,01,00,7.20
2018,04,24,01,01,7.20
2018,04,24,01,02,7.10
2018,04,24,01,03,7.00
2018,04,24,01,04,7.00
2018,04,24,01,05,6.90
2018,04,24,01,06,6.90
2018,04,24,01,07,6.80
2018,04,24,01,08,6.80
2018,04,24,01,09,6.80
2018,04,24,01,10,6.80
2018,04,24,01,11,6.80
2018,04,24,01,12,6.80
2018,04,24,01,13,6.90
2018,04,24,01,14,6.90
2018,04,24,01,15,6.90
2018,04,24,01,16,6.90
2018,04,24,01,17,6.80
2018,04,24,01,18,6.80
2018,04,24,01,19,6.80
2018,04,24,01,20,6.80
2018,04,24,01,21,6.80
2018,04,24,01,22,6.80
2018,04,24,01,23,6.80
2018,04,24,01,24,6.70
2018,04,24,01,25,6.70
2018,04,24,01,26,6.70
2018,04,24,01,27,6.70
2018,04,24,01,28,6.70
2018,04,24,01,29,6.70
2018,04,24,01,30,6.70
2018,04,24,01,31,6.70
2018,04,24,01,32,6.70
2018,04,24,01,33,6.70
2018,04,24,01,34,6.80
2018,04,24,01,35,6.80
2018,04,24,01,36,6.80
2018,04,24,01,37,6.80
2018,04,24,01,38,6.80
2018,04,24,01,39,6.80
2018,04,24,01,40,6.80
2018,04,24,01,41,6.80
2018,04,24,01,42,6.80
2018,04,24,01,43,6.90
2018,04,24,01,44,6.90
2018,04,24,01,45,7.00
2018,04,24,01,46,7.00
2018,04,24,01,47,7.10
2018,04,24,01,48,7.10
2018,04,24,01,49,7.10
2018,04,24,01,50,7.10
2018,04,24,01,51,7.10
2018,04,24,01,52,7.10
2018,04,24,01,53,7.10
2018,04,24,01,54,7.10
2018,04,24,01,55,7.10
2018,04,24,01,56,7.20
2018,04,24,01,57,7.20
2018,04,24,01,58,7.20
2018,04,24,01,59,7.20
2018,04,24,02,00,7.30
2018,04,24,02,01,7.30
2018,04,24,02,02,7.40
2018,04,24,02,03,7.40
2018,04,24,02,04,7.40
2018,04,24,02,05,7.30
2018,04,24,02,06,7.30
2018,04,24,02,07,7.20
2018,04,24,02,08,7.10
2018,04,24,02,09,7.10
2018,04,24,02,10,7.00
2018,04,24,02,11,7.00
2018,04,24,02,12,6.90
2018,04,24,02,13,6.80
2018,04,24,02,14,6.80
2018,04,24,02,15,6.80
2018,04,24,02,16,6.80
2018,04,24,02,17,6.80
2018,04,24,02,18,6.80
2018,04,24,02,19,6.80
2018,04,24,02,20,6.80
2018,04,24,02,21,6.80
2018,04,24,02,22,6.80
2018,04,24,02,23,6.80
2018,04,24,02,24,6.80
2018,04,24,02,25,6.80
2018,04,24,02,26,6.80
2018,04,24,02,27,6.80
2018,04,24,02,28,6.70
2018,04,24,02,29,6.70
2018,04,24,02,30,6.70
2018,04,24,02,31,6.60
2018,04,24,02,32,6.60
2018,04,24,02,33,6.50
2018,04,24,02,34,6.50
2018,04,24,02,35,6.40
2018,04,24,02,36,6.40
2018,04,24,02,37,6.40
2018,04,24,02,38,6.40
2018,04,24,02,39,6.40
2018,04,24,02,40,6.30
2018,04,24,02,41,6.30
2018,04,24,02,42,6.30
2018,04,24,02,43,6.20
2018,04,24,02,44,6.20
2018,04,24,02,45,6.10
2018,04,24,02,46,6.10
2018,04,24,02,47,6.00
2018,04,24,02,48,6.00
2018,04,24,02,49,6.00
2018,04,24,02,50,5.90
2018,04,24,02,51,5.90
2018,04,24,02,52,5.80
2018,04,24,02,53,5.80
2018,04,24,02,54,5.80
2018,04,24,02,55,5.80
2018,04,24,02,56,5.90
2018,04,24,02,57,6.00
2018,04,24,02,58,6.00
2018,04,24,02,59,6.10
2018,04,24,03,00,6.20
2018,04,24,03,01,6.20
2018,04,24,03,02,6.30
2018,04,24,03,03,6.30
2018,04,24,03,04,6.30
2018,04,24,03,05,6.30
2018,04,24,03,06,6.30
2018,04,24,03,07,6.20
2018,04,24,03,08,6.20
2018,04,24,03,09,6.20
2018,04,24,03,10,6.10
2018,04,24,03,11,6.10
2018,04,24,03,12,6.10
2018,04,24,03,13,6.00
2018,04,24,03,14,6.00
2018,04,24,03,15,5.90
2018,04,24,03,16,5.90
2018,04,24,03,17,5.90
2018,04,24,03,18,5.90
2018,04,24,03,19,5.80
2018,04,24,03,20,5.90
2018,04,24,03,21,5.90
2018,04,24,03,22,5.90
2018,04,24,03,23,5.90
2018,04,24,03,24,5.90
2018,04,24,03,25,5.90
2018,04,24,03,26,5.80
2018,04,24,03,27,5.80
2018,04,24,03,28,5.80
2018,04,24,03,29,5.80
2018,04,24,03,30,5.80
2018,04,24,03,31,5.80
2018,04,24,03,32,5.80
2018,04,24,03,33,5.90
2018,04,24,03,34,5.90
2018,04,24,03,35,5.90
2018,04,24,03,36,6.00
2018,04,24,03,37,6.00
2018,04,24,03,38,6.10
2018,04,24,03,39,6.10
2018,04,24,03,40,6.20
2018,04,24,03,41,6.20
2018,04,24,03,42,6.10
2018,04,24,03,43,6.10
2018,04,24,03,44,6.00
2018,04,24,03,45,5.90
2018,04,24,03,46,5.80
2018,04,24,03,47,5.80
2018,04,24,03,48,5.70
2018,04,24,03,49,5.70
2018,04,24,03,50,5.70
2018,04,24,03,51,5.80
2018,04,24,03,52,5.80
2018,04,24,03,53,5.80
2018,04,24,03,54,5.80
2018,04,24,03,55,5.80
2018,04,24,03,56,5.80
2018,04,24,03,57,5.80
2018,04,24,03,58,5.70
2018,04,24,03,59,5.70
2018,04,24,04,00,5.70
2018,04,24,04,01,5.70
2018,04,24,04,02,5.70
2018,04,24,04,03,5.70
2018,04,24,04,04,5.70
2018,04,24,04,05,5.70
2018,04,24,04,06,5.70
2018,04,24,04,07,5.80
2018,04,24,04,08,5.80
2018,04,24,04,09,5.80
2018,04,24,04,10,5.90
2018,04,24,04,11,6.00
2018,04,24,04,12,6.00
2018,04,24,04,13,6.10
2018,04,24,04,14,6.10
2018,04,24,04,15,6.10
2018,04,24,04,16,6.10
2018,04,24,04,17,6.00
2018,04,24,04,18,6.00
2018,04,24,04,19,6.00
2018,04,24,04,20,6.00
2018,04,24,04,21,5.90
2018,04,24,04,22,5.80
2018,04,24,04,23,5.80
2018,04,24,04,24,5.80
2018,04,24,04,25,5.80
2018,04,24,04,26,5.80
2018,04,24,04,27,5.80
2018,04,24,04,28,5.80
2018,04,24,04,29,5.80
2018,04,24,04,30,5.80
2018,04,24,04,31,5.80
2018,04,24,04,32,5.80
2018,04,24,04,33,5.80
2018,04,24,04,34,5.70
2018,04,24,04,35,5.70
2018,04,24,04,36,5.70
2018,04,24,04,37,5.70
2018,04,24,04,38,5.70
2018,04,24,04,39,5.70
2018,04,24,04,40,5.60
2018,04,24,04,41,5.70
2018,04,24,04,42,5.70
2018,04,24,04,43,5.70
2018,04,24,04,44,5.70
2018,04,24,04,45,5.70
2018,04,24,04,46,5.70
2018,04,24,04,47,5.70
2018,04,24,04,48,5.80
2018,04,24,04,49,5.80
2018,04,24,04,50,5.80
2018,04,24,04,51,5.70
2018,04,24,04,52,5.60
2018,04,24,04,53,5.50
2018,04,24,04,54,5.50
2018,04,24,04,55,5.40
2018,04,24,04,56,5.40
2018,04,24,04,57,5.30
2018,04,24,04,58,5.20
2018,04,24,04,59,5.20
2018,04,24,05,00,5.20
2018,04,24,05,01,5.30
2018,04,24,05,02,5.30
2018,04,24,05,03,5.40
2018,04,24,05,04,5.40
2018,04,24,05,05,5.40
2018,04,24,05,06,5.50
2018,04,24,05,07,5.40
2018,04,24,05,08,5.40
2018,04,24,05,09,5.40
2018,04,24,05,10,5.40
2018,04,24,05,11,5.50
2018,04,24,05,12,5.60
2018,04,24,05,13,5.60
2018,04,24,05,14,5.50
2018,04,24,05,15,5.50
2018,04,24,05,16,5.40
2018,04,24,05,17,5.30
2018,04,24,05,18,5.30
2018,04,24,05,19,5.30
2018,04,24,05,20,5.30
2018,04,24,05,21,5.30
2018,04,24,05,22,5.30
2018,04,24,05,23,5.30
2018,04,24,05,24,5.30
2018,04,24,05,25,5.20
2018,04,24,05,26,5.20
2018,04,24,05,27,5.20
2018,04,24,05,28,5.20
2018,04,24,05,29,5.20
2018,04,24,05,30,5.20
2018,04,24,05,31,5.20
2018,04,24,05,32,5.20
2018,04,24,05,33,5.10
2018,04,24,05,34,5.10
2018,04,24,05,35,5.10
2018,04,24,05,36,5.20
2018,04,24,05,37,5.20
2018,04,24,05,38,5.20
2018,04,24,05,39,5.20
2018,04,24,05,40,5.20
2018,04,24,05,41,5.20
2018,04,24,05,42,5.30
2018,04,24,05,43,5.30
2018,04,24,05,44,5.30
2018,04,24,05,45,5.40
2018,04,24,05,46,5.50
2018,04,24,05,47,5.50
2018,04,24,05,48,5.50
2018,04,24,05,49,5.60
2018,04,24,05,50,5.60
2018,04,24,05,51,5.60
2018,04,24,05,52,5.70
2018,04,24,05,53,5.70
2018,04,24,05,54,5.80
2018,04,24,05,55,5.80
2018,04,24,05,56,5.90
2018,04,24,05,57,5.90
2018,04,24,05,58,5.80
2018,04,24,05,59,5.80
2018,04,24,06,00,5.70
2018,04,24,06,01,5.60
2018,04,24,06,02,5.50
2018,04,24,06,03,5.40
2018,04,24,06,04,5.30
2018,04,24,06,05,5.30
2018,04,24,06,06,5.20
2018,04,24,06,07,5.30
2018,04,24,06,08,5.30
2018,04,24,06,09,5.30
2018,04,24,06,10,5.30
2018,04,24,06,11,5.30
2018,04,24,06,12,5.20
2018,04,24,06,13,5.10
2018,04,24,06,14,5.20
2018,04,24,06,15,5.20
2018,04,24,06,16,5.10
2018,04,24,06,17,5.10
2018,04,24,06,18,5.20
2018,04,24,06,19,5.20
2018,04,24,06,20,5.30
2018,04,24,06,21,5.40
2018,04,24,06,22,5.40
2018,04,24,06,23,5.50
2018,04,24,06,24,5.60
2018,04,24,06,25,5.60
2018,04,24,06,26,5.70
2018,04,24,06,27,5.70
2018,04,24,06,28,5.60
2018,04,24,06,29,5.60
2018,04,24,06,30,5.60
2018,04,24,06,31,5.50
2018,04,24,06,32,5.50
2018,04,24,06,33,5.40
2018,04,24,06,34,5.40
2018,04,24,06,35,5.40
2018,04,24,06,36,5.40
2018,04,24,06,37,5.40
2018,04,24,06,38,5.40
2018,04,24,06,39,5.30
2018,04,24,06,40,5.30
2018,04,24,06,41,5.30
2018,04,24,06,42,5.40
2018,04,24,06,43,5.40
2018,04,24,06,44,5.40
2018,04,24,06,45,5.50
2018,04,24,06,46,5.50
2018,04,24,06,47,5.50
2018,04,24,06,48,5.60
2018,04,24,06,49,5.60
2018,04,24,06,50,5.60
2018,04,24,06,51,5.60
2018,04,24,06,52,5.60
2018,04,24,06,53,5.60
2018,04,24,06,54,5.70
2018,04,24,06,55,5.70
2018,04,24,06,56,5.70
2018,04,24,06,57,5.70
2018,04,24,06,58,5.70
2018,04,24,06,59,5.70
2018,04,24,07,00,5.70
2018,04,24,07,01,5.70
2018,04,24,07,02,5.80
2018,04,24,07,03,5.90
2018,04,24,07,04,6.00
2018,04,24,07,05,6.00
2018,04,24,07,06,6.00
2018,04,24,07,07,6.10
2018,04,24,07,08,6.10
2018,04,24,07,09,6.10
2018,04,24,07,10,6.10
2018,04,24,07,11,6.10
2018,04,24,07,12,6.20
2018,04,24,07,13,6.20
2018,04,24,07,14,6.30
2018,04,24,07,15,6.30
2018,04,24,07,16,6.30
2018,04,24,07,17,6.30
2018,04,24,07,18,6.40
2018,04,24,07,19,6.40
2018,04,24,07,20,6.50
2018,04,24,07,21,6.50
2018,04,24,07,22,6.60
2018,04,24,07,23,6.60
2018,04,24,07,24,6.60
2018,04,24,07,25,6.60
2018,04,24,07,26,6.60
2018,04,24,07,27,6.60
2018,04,24,07,28,6.60
2018,04,24,07,29,6.60
2018,04,24,07,30,6.60
2018,04,24,07,31,6.70
2018,04,24,07,32,6.70
2018,04,24,07,33,6.80
2018,04,24,07,34,6.80
2018,04,24,07,35,6.80
2018,04,24,07,36,6.90
2018,04,24,07,37,7.00
2018,04,24,07,38,7.00
2018,04,24,07,39,7.10
2018,04,24,07,40,7.10
2018,04,24,07,41,7.20
2018,04,24,07,42,7.20
2018,04,24,07,43,7.30
2018,04,24,07,44,7.30
2018,04,24,07,45,7.40
2018,04,24,07,46,7.40
2018,04,24,07,47,7.40
2018,04,24,07,48,7.50
2018,04,24,07,49,7.50
2018,04,24,07,50,7.60
2018,04,24,07,51,7.60
2018,04,24,07,52,7.70
2018,04,24,07,53,7.70
2018,04,24,07,54,7.80
2018,04,24,07,55,7.80
2018,04,24,07,56,7.90
2018,04,24,07,57,7.90
2018,04,24,07,58,8.00
2018,04,24,07,59,8.10
2018,04,24,08,00,8.10
2018,04,24,08,01,8.20
2018,04,24,08,02,8.30
2018,04,24,08,03,8.50
2018,04,24,08,04,8.50
2018,04,24,08,05,8.60
2018,04,24,08,06,8.70
2018,04,24,08,07,8.80
2018,04,24,08,08,8.80
2018,04,24,08,09,8.90
2018,04,24,08,10,9.00
2018,04,24,08,11,9.10
2018,04,24,08,12,9.10
2018,04,24,08,13,9.20
2018,04,24,08,14,9.30
2018,04,24,08,15,9.40
2018,04,24,08,16,9.50
2018,04,24,08,17,9.60
2018,04,24,08,18,9.70
2018,04,24,08,19,9.70
2018,04,24,08,20,9.70
2018,04,24,08,21,9.80
2018,04,24,08,22,9.80
2018,04,24,08,23,9.80
2018,04,24,08,24,9.90
2018,04,24,08,25,9.90
2018,04,24,08,26,9.90
2018,04,24,08,27,10.00
2018,04,24,08,28,10.00
2018,04,24,08,29,10.10
2018,04,24,08,30,10.10
2018,04,24,08,31,10.20
2018,04,24,08,32,10.30
2018,04,24,08,33,10.40
2018,04,24,08,34,10.40
2018,04,24,08,35,10.50
2018,04,24,08,36,10.60
2018,04,24,08,37,10.60
2018,04,24,08,38,10.70
2018,04,24,08,39,10.70
2018,04,24,08,40,10.70
2018,04,24,08,41,10.80
2018,04,24,08,42,10.80
2018,04,24,08,43,10.90
2018,04,24,08,44,11.00
2018,04,24,08,45,11.00
2018,04,24,08,46,11.10
2018,04,24,08,47,11.20
2018,04,24,08,48,11.20
2018,04,24,08,49,11.30
2018,04,24,08,50,11.30
2018,04,24,08,51,11.40
2018,04,24,08,52,11.40
2018,04,24,08,53,11.50
2018,04,24,08,54,11.50
2018,04,24,08,55,11.60
2018,04,24,08,56,11.60
2018,04,24,08,57,11.70
2018,04,24,08,58,11.70
2018,04,24,08,59,11.80
2018,04,24,09,00,11.90
2018,04,24,09,01,11.90
2018,04,24,09,02,12.00
2018,04,24,09,03,12.10
2018,04,24,09,04,12.10
2018,04,24,09,05,12.10
2018,04,24,09,06,12.10
2018,04,24,09,07,12.20
2018,04,24,09,08,12.30
2018,04,24,09,09,12.30
2018,04,24,09,10,12.30
2018,04,24,09,11,12.30
2018,04,24,09,12,12.30
2018,04,24,09,13,12.30
2018,04,24,09,14,12.30
2018,04,24,09,15,12.30
2018,04,24,09,16,12.40
2018,04,24,09,17,12.50
2018,04,24,09,18,12.60
2018,04,24,09,19,12.70
2018,04,24,09,20,12.90
2018,04,24,09,21,13.00
2018,04,24,09,22,13.00
2018,04,24,09,23,13.10
2018,04,24,09,24,13.10
2018,04,24,09,25,13.10
2018,04,24,09,26,13.10
2018,04,24,09,27,13.10
2018,04,24,09,28,13.20
2018,04,24,09,29,13.20
2018,04,24,09,30,13.30
2018,04,24,09,31,13.40
2018,04,24,09,32,13.50
2018,04,24,09,33,13.50
2018,04,24,09,34,13.60
2018,04,24,09,35,13.60
2018,04,24,09,36,13.60
2018,04,24,09,37,13.60
2018,04,24,09,38,13.60
2018,04,24,09,39,13.60
2018,04,24,09,40,13.60
2018,04,24,09,41,13.60
2018,04,24,09,42,13.60
2018,04,24,09,43,13.70
2018,04,24,09,44,13.70
2018,04,24,09,45,13.70
2018,04,24,09,46,13.70
2018,04,24,09,47,13.80
2018,04,24,09,48,13.80
2018,04,24,09,49,13.80
2018,04,24,09,50,13.80
2018,04,24,09,51,13.90
2018,04,24,09,52,13.90
2018,04,24,09,53,13.90
2018,04,24,09,54,13.90
2018,04,24,09,55,13.80
2018,04,24,09,56,13.80
2018,04,24,09,57,13.80
2018,04,24,09,58,13.80
2018,04,24,09,59,13.90
2018,04,24,10,00,14.00
2018,04,24,10,01,14.00
2018,04,24,10,02,14.10
2018,04,24,10,03,14.00
2018,04,24,10,04,14.00
2018,04,24,10,05,14.00
2018,04,24,10,06,14.10
2018,04,24,10,07,14.10
2018,04,24,10,08,14.20
2018,04,24,10,09,14.30
2018,04,24,10,10,14.40
2018,04,24,10,11,14.40
2018,04,24,10,12,14.40
2018,04,24,10,13,14.40
2018,04,24,10,14,14.30
2018,04,24,10,15,14.30
2018,04,24,10,16,14.30
2018,04,24,10,17,14.30
2018,04,24,10,18,14.30
2018,04,24,10,19,14.20
2018,04,24,10,20,14.20
2018,04,24,10,21,14.10
2018,04,24,10,22,14.10
2018,04,24,10,23,14.10
2018,04,24,10,24,14.10
2018,04,24,10,25,14.10
2018,04,24,10,26,14.20
2018,04,24,10,27,14.20
2018,04,24,10,28,14.30
2018,04,24,10,29,14.30
2018,04,24,10,30,14.40
2018,04,24,10,31,14.50
2018,04,24,10,32,14.60
2018,04,24,10,33,14.60
2018,04,24,10,34,14.60
2018,04,24,10,35,14.50
2018,04,24,10,36,14.50
2018,04,24,10,37,14.50
2018,04,24,10,38,14.60
2018,04,24,10,39,14.70
2018,04,24,10,40,14.70
2018,04,24,10,41,14.70
2018,04,24,10,42,14.80
2018,04,24,10,43,14.80
2018,04,24,10,44,14.80
2018,04,24,10,45,14.80
2018,04,24,10,46,14.90
2018,04,24,10,47,14.90
2018,04,24,10,48,14.90
2018,04,24,10,49,14.90
2018,04,24,10,50,14.90
2018,04,24,10,51,15.00
2018,04,24,10,52,15.00
2018,04,24,10,53,15.10
2018,04,24,10,54,15.10
2018,04,24,10,55,15.20
2018,04,24,10,56,15.30
2018,04,24,10,57,15.30
2018,04,24,10,58,15.40
2018,04,24,10,59,15.40
2018,04,24,11,00,15.50
2018,04,24,11,01,15.60
2018,04,24,11,02,15.60
2018,04,24,11,03,15.70
2018,04,24,11,04,15.60
2018,04,24,11,05,15.60
2018,04,24,11,06,15.50
2018,04,24,11,07,15.50
2018,04,24,11,08,15.40
2018,04,24,11,09,15.40
2018,04,24,11,10,15.40
2018,04,24,11,11,15.40
2018,04,24,11,12,15.30
2018,04,24,11,13,15.30
2018,04,24,11,14,15.30
2018,04,24,11,15,15.20
2018,04,24,11,16,15.30
2018,04,24,11,17,15.30
2018,04,24,11,18,15.40
2018,04,24,11,19,15.40
2018,04,24,11,20,15.50
2018,04,24,11,21,15.50
2018,04,24,11,22,15.60
2018,04,24,11,23,15.70
2018,04,24,11,24,15.70
2018,04,24,11,25,15.70
2018,04,24,11,26,15.80
2018,04,24,11,27,15.80
2018,04,24,11,28,15.80
2018,04,24,11,29,15.80
2018,04,24,11,30,15.90
2018,04,24,11,31,15.90
2018,04,24,11,32,16.00
2018,04,24,11,33,16.00
2018,04,24,11,34,16.10
2018,04,24,11,35,16.10
2018,04,24,11,36,16.20
2018,04,24,11,37,16.20
2018,04,24,11,38,16.20
2018,04,24,11,39,16.20
2018,04,24,11,40,16.30
2018,04,24,11,41,16.30
2018,04,24,11,42,16.20
2018,04,24,11,43,16.30
2018,04,24,11,44,16.30
2018,04,24,11,45,16.20
2018,04,24,11,46,16.20
2018,04,24,11,47,16.20
2018,04,24,11,48,16.20
2018,04,24,11,49,16.20
2018,04,24,11,50,16.20
2018,04,24,11,51,16.20
2018,04,24,11,52,16.20
2018,04,24,11,53,16.30
2018,04,24,11,54,16.30
2018,04,24,11,55,16.30
2018,04,24,11,56,16.40
2018,04,24,11,57,16.40
2018,04,24,11,58,16.50
2018,04,24,11,59,16.50
2018,04,24,12,00,16.50
2018,04,24,12,01,16.50
2018,04,24,12,02,16.40
2018,04,24,12,03,16.40
2018,04,24,12,04,16.30
2018,04,24,12,05,16.30
2018,04,24,12,06,16.30
2018,04,24,12,07,16.30
2018,04,24,12,08,16.40
2018,04,24,12,09,16.40
2018,04,24,12,10,16.50
2018,04,24,12,11,16.50
2018,04,24,12,12,16.50
2018,04,24,12,13,16.50
2018,04,24,12,14,16.50
2018,04,24,12,15,16.60
2018,04,24,12,16,16.70
2018,04,24,12,17,16.80
2018,04,24,12,18,16.80
2018,04,24,12,19,16.70
2018,04,24,12,20,16.70
2018,04,24,12,21,16.70
2018,04,24,12,22,16.70
2018,04,24,12,23,16.70
2018,04,24,12,24,16.70
2018,04,24,12,25,16.70
2018,04,24,12,26,16.70
2018,04,24,12,27,16.80
2018,04,24,12,28,16.80
2018,04,24,12,29,16.80
2018,04,24,12,30,16.80
2018,04,24,12,31,16.80
2018,04,24,12,32,16.80
2018,04,24,12,33,16.90
2018,04,24,12,34,17.00
2018,04,24,12,35,17.10
2018,04,24,12,36,17.20
2018,04,24,12,37,17.30
2018,04,24,12,38,17.40
2018,04,24,12,39,17.40
2018,04,24,12,40,17.40
2018,04,24,12,41,17.40
2018,04,24,12,42,17.30
2018,04,24,12,43,17.30
2018,04,24,12,44,17.20
2018,04,24,12,45,17.20
2018,04,24,12,46,17.30
2018,04,24,12,47,17.30
2018,04,24,12,48,17.30
2018,04,24,12,49,17.30
2018,04,24,12,50,17.30
2018,04,24,12,51,17.30
2018,04,24,12,52,17.40
2018,04,24,12,53,17.50
2018,04,24,12,54,17.60
2018,04,24,12,55,17.70
2018,04,24,12,56,17.80
2018,04,24,12,57,17.90
2018,04,24,12,58,18.00
2018,04,24,12,59,18.00
2018,04,24,13,00,18.10
2018,04,24,13,01,18.10
2018,04,24,13,02,18.20
2018,04,24,13,03,18.20
2018,04,24,13,04,18.20
2018,04,24,13,05,18.20
2018,04,24,13,06,18.20
2018,04,24,13,07,18.20
2018,04,24,13,08,18.10
2018,04,24,13,09,18.10
2018,04,24,13,10,18.10
2018,04,24,13,11,18.10
2018,04,24,13,12,18.10
2018,04,24,13,13,18.10
2018,04,24,13,14,18.00
2018,04,24,13,15,18.00
2018,04,24,13,16,18.00
2018,04,24,13,17,17.90
2018,04,24,13,18,17.90
2018,04,24,13,19,18.00
2018,04,24,13,20,18.10
2018,04,24,13,21,18.20
2018,04,24,13,22,18.30
2018,04,24,13,23,18.20
2018,04,24,13,24,18.10
2018,04,24,13,25,18.10
2018,04,24,13,26,18.00
2018,04,24,13,27,18.10
2018,04,24,13,28,18.10
2018,04,24,13,29,18.10
2018,04,24,13,30,18.10
2018,04,24,13,31,18.10
2018,04,24,13,32,18.10
2018,04,24,13,33,18.20
2018,04,24,13,34,18.30
2018,04,24,13,35,18.30
2018,04,24,13,36,18.40
2018,04,24,13,37,18.40
2018,04,24,13,38,18.50
2018,04,24,13,39,18.50
2018,04,24,13,40,18.60
2018,04,24,13,41,18.60
2018,04,24,13,42,18.70
2018,04,24,13,43,18.70
2018,04,24,13,44,18.70
2018,04,24,13,45,18.70
2018,04,24,13,46,18.70
2018,04,24,13,47,18.70
2018,04,24,13,48,18.80
2018,04,24,13,49,18.80
2018,04,24,13,50,18.80
2018,04,24,13,51,18.80
2018,04,24,13,52,18.80
2018,04,24,13,53,18.80
2018,04,24,13,54,18.80
2018,04,24,13,55,18.80
2018,04,24,13,56,18.80
2018,04,24,13,57,18.80
2018,04,24,13,58,18.80
2018,04,24,13,59,18.80
2018,04,24,14,00,18.80
2018,04,24,14,01,18.90
2018,04,24,14,02,18.90
2018,04,24,14,03,19.00
2018,04,24,14,04,19.00
2018,04,24,14,05,19.10
2018,04,24,14,06,19.10
2018,04,24,14,07,19.20
2018,04,24,14,08,19.20
2018,04,24,14,09,19.30
2018,04,24,14,10,19.40
2018,04,24,14,11,19.40
2018,04,24,14,12,19.50
2018,04,24,14,13,19.50
2018,04,24,14,14,19.60
2018,04,24,14,15,19.60
2018,04,24,14,16,19.60
2018,04,24,14,17,19.70
2018,04,24,14,18,19.70
2018,04,24,14,19,19.70
2018,04,24,14,20,19.70
2018,04,24,14,21,19.70
2018,04,24,14,22,19.60
2018,04,24,14,23,19.60
2018,04,24,14,24,19.50
2018,04,24,14,25,19.40
2018,04,24,14,26,19.40
2018,04,24,14,27,19.40
2018,04,24,14,28,19.30
2018,04,24,14,29,19.30
2018,04,24,14,30,19.30
2018,04,24,14,31,19.40
2018,04,24,14,32,19.40
2018,04,24,14,33,19.50
2018,04,24,14,34,19.60
2018,04,24,14,35,19.60
2018,04,24,14,36,19.60
2018,04,24,14,37,19.50
2018,04,24,14,38,19.50
2018,04,24,14,39,19.50
2018,04,24,14,40,19.50
2018,04,24,14,41,19.50
2018,04,24,14,42,19.60
2018,04,24,14,43,19.60
2018,04,24,14,44,19.60
2018,04,24,14,45,19.60
2018,04,24,14,46,19.60
2018,04,24,14,47,19.60
2018,04,24,14,48,19.50
2018,04,24,14,49,19.50
2018,04,24,14,50,19.40
2018,04,24,14,51,19.40
2018,04,24,14,52,19.40
2018,04,24,14,53,19.40
2018,04,24,14,54,19.50
2018,04,24,14,55,19.60
2018,04,24,14,56,19.70
2018,04,24,14,57,19.80
2018,04,24,14,58,19.80
2018,04,24,14,59,19.80
2018,04,24,15,00,19.80
2018,04,24,15,01,19.70
2018,04,24,15,02,19.60
2018,04,24,15,03,19.60
2018,04,24,15,04,19.50
2018,04,24,15,05,19.50
2018,04,24,15,06,19.60
2018,04,24,15,07,19.60
2018,04,24,15,08,19.70
2018,04,24,15,09,19.70
2018,04,24,15,10,19.70
2018,04,24,15,11,19.70
2018,04,24,15,12,19.80
2018,04,24,15,13,19.80
2018,04,24,15,14,19.80
2018,04,24,15,15,19.90
2018,04,24,15,16,19.90
2018,04,24,15,17,20.00
2018,04,24,15,18,20.10
2018,04,24,15,19,20.10
2018,04,24,15,20,20.00
2018,04,24,15,21,20.00
2018,04,24,15,22,20.00
2018,04,24,15,23,20.00
2018,04,24,15,24,19.90
2018,04,24,15,25,19.80
2018,04,24,15,26,19.70
2018,04,24,15,27,19.70
2018,04,24,15,28,19.60
2018,04,24,15,29,19.60
2018,04,24,15,30,19.60
2018,04,24,15,31,19.60
2018,04,24,15,32,19.60
2018,04,24,15,33,19.50
2018,04,24,15,34,19.50
2018,04,24,15,35,19.60
2018,04,24,15,36,19.60
2018,04,24,15,37,19.60
2018,04,24,15,38,19.60
2018,04,24,15,39,19.60
2018,04,24,15,40,19.60
2018,04,24,15,41,19.60
2018,04,24,15,42,19.60
2018,04,24,15,43,19.60
2018,04,24,15,44,19.60
2018,04,24,15,45,19.60
2018,04,24,15,46,19.60
2018,04,24,15,47,19.60
2018,04,24,15,48,19.60
2018,04,24,15,49,19.60
2018,04,24,15,50,19.70
2018,04,24,15,51,19.80
2018,04,24,15,52,19.80
2018,04,24,15,53,19.80
2018,04,24,15,54,19.90
2018,04,24,15,55,19.90
2018,04,24,15,56,19.90
2018,04,24,15,57,19.90
2018,04,24,15,58,19.90
2018,04,24,15,59,19.90
2018,04,24,16,00,19.90
2018,04,24,16,01,19.90
2018,04,24,16,02,19.90
2018,04,24,16,03,19.90
2018,04,24,16,04,20.00
2018,04,24,16,05,20.00
2018,04,24,16,06,20.00
2018,04,24,16,07,20.10
2018,04,24,16,08,20.10
2018,04,24,16,09,20.10
2018,04,24,16,10,20.10
2018,04,24,16,11,20.00
2018,04,24,16,12,20.00
2018,04,24,16,13,20.00
2018,04,24,16,14,20.10
2018,04,24,16,15,20.10
2018,04,24,16,16,20.20
2018,04,24,16,17,20.20
2018,04,24,16,18,20.20
2018,04,24,16,19,20.20
2018,04,24,16,20,20.20
2018,04,24,16,21,20.10
2018,04,24,16,22,20.10
2018,04,24,16,23,20.10
2018,04,24,16,24,20.10
2018,04,24,16,25,20.10
2018,04,24,16,26,20.10
2018,04,24,16,27,20.20
2018,04,24,16,28,20.20
2018,04,24,16,29,20.20
2018,04,24,16,30,20.20
2018,04,24,16,31,20.20
2018,04,24,16,32,20.30
2018,04,24,16,33,20.30
2018,04,24,16,34,20.30
2018,04,24,16,35,20.30
2018,04,24,16,36,20.30
2018,04,24,16,37,20.20
2018,04,24,16,38,20.20
2018,04,24,16,39,20.20
2018,04,24,16,40,20.20
2018,04,24,16,41,20.20
2018,04,24,16,42,20.20
2018,04,24,16,43,20.20
2018,04,24,16,44,20.20
2018,04,24,16,45,20.20
2018,04,24,16,46,20.30
2018,04,24,16,47,20.30
2018,04,24,16,48,20.30
2018,04,24,16,49,20.30
2018,04,24,16,50,20.30
2018,04,24,16,51,20.40
2018,04,24,16,52,20.40
2018,04,24,16,53,20.40
2018,04,24,16,54,20.40
2018,04,24,16,55,20.30
2018,04,24,16,56,20.30
2018,04,24,16,57,20.30
2018,04,24,16,58,20.30
2018,04,24,16,59,20.30
2018,04,24,17,00,20.30
2018,04,24,17,01,20.30
2018,04,24,17,02,20.40
2018,04,24,17,03,20.40
2018,04,24,17,04,20.40
2018,04,24,17,05,20.40
2018,04,24,17,06,20.40
2018,04,24,17,07,20.40
2018,04,24,17,08,20.40
2018,04,24,17,09,20.40
2018,04,24,17,10,20.30
2018,04,24,17,11,20.30
2018,04,24,17,12,20.30
2018,04,24,17,13,20.30
2018,04,24,17,14,20.40
2018,04,24,17,15,20.40
2018,04,24,17,16,20.40
2018,04,24,17,17,20.50
2018,04,24,17,18,20.60
2018,04,24,17,19,20.60
2018,04,24,17,20,20.60
2018,04,24,17,21,20.60
2018,04,24,17,22,20.50
2018,04,24,17,23,20.50
2018,04,24,17,24,20.50
2018,04,24,17,25,20.50
2018,04,24,17,26,20.50
2018,04,24,17,27,20.50
2018,04,24,17,28,20.40
2018,04,24,17,29,20.40
2018,04,24,17,30,20.30
2018,04,24,17,31,20.30
2018,04,24,17,32,20.30
2018,04,24,17,33,20.30
2018,04,24,17,34,20.30
2018,04,24,17,35,20.40
2018,04,24,17,36,20.40
2018,04,24,17,37,20.40
2018,04,24,17,38,20.40
2018,04,24,17,39,20.50
2018,04,24,17,40,20.40
2018,04,24,17,41,20.40